Overview Statistics Trail Chart Weather Telemetry Raw packets
 

This is the latest recevied weather packets stored in our database for station/object KC9DRE. If no packets are shown the sender has not sent any weather packets the latest 10 day(s).

<< 82 83 84 85 86 87 88 >>
Time Temp. Humidity Pressure Rain* Wind** Luminosity Snow
1777303154 20° C 72% 1014.3 hPa 0 mm - 250 W/m² -
1777302853 19.44° C 71% 1014.4 hPa 0 mm - 220 W/m² -
1777302549 19.44° C 71% 1014.3 hPa 0 mm - 173 W/m² -
1777302247 19.44° C 72% 1014.8 hPa 0 mm - 153 W/m² -
1777301944 18.89° C 73% 1015.1 hPa 0 mm - 143 W/m² -
1777301642 18.89° C 72% 1015.4 hPa 0 mm - 140 W/m² -
1777301339 18.89° C 73% 1015.3 hPa 0 mm - 135 W/m² -
1777301035 18.89° C 73% 1015.7 hPa 0 mm - 128 W/m² -
1777300733 18.89° C 72% 1015.6 hPa 0 mm - 131 W/m² -
1777300431 18.89° C 73% 1015.2 hPa 0 mm - 144 W/m² -
1777300128 18.33° C 73% 1015.6 hPa 0 mm - 152 W/m² -
1777299824 18.33° C 71% 1015.2 hPa 0 mm - 167 W/m² -
1777299522 18.33° C 71% 1015.4 hPa 0 mm - 180 W/m² -
1777299220 18.33° C 71% 1015.1 hPa 0 mm - 207 W/m² -
1777298917 18.33° C 71% 1015.1 hPa 0 mm - 209 W/m² -
1777298615 18.33° C 71% 1015.2 hPa 0 mm - 204 W/m² -
1777298311 17.78° C 72% 1015 hPa 0 mm - 204 W/m² -
1777298007 17.78° C 72% 1014.9 hPa 0 mm - 202 W/m² -
1777297702 17.78° C 74% 1015.1 hPa 0 mm - 193 W/m² -
1777297400 17.22° C 75% 1015.1 hPa 0 mm - 186 W/m² -
1777297096 17.22° C 75% 1015.2 hPa 0 mm - 187 W/m² -
1777296794 16.67° C 74% 1015.2 hPa 0 mm - 183 W/m² -
1777296489 16.67° C 76% 1015.3 hPa 0 mm - 183 W/m² -
1777296185 16.11° C 77% 1015.2 hPa 0 mm - 187 W/m² -
1777295882 16.11° C 77% 1015.2 hPa 0 mm - 176 W/m² -

* Rain latest hour (hover to see other rain measurements)
** Current wind speed in m/s (hover to see current wind gust speed)